Location: L�Ave Maria
(50.7161°N, 1.5911°E)
Time: 23:53:37
(UTC+00:00)

GEOS 3 Rocket - Pass Details

Date: 10 July 2020
Orbit: 771 x 848 km, 115.0° (Epoch: 03 August)

Event Time Altitude Azimuth Distance (km) Brightness Sun altitude
Rises 22:12:55 0° 42° (NE) 3,410 7.2 -13.5°
Reaches altitude 10° 22:15:14 10° 42° (NE) 2,476 6.4 -13.7°
Maximum altitude 22:20:39 89° 317° (NW) 855 3.7 -14.0°
Drops below altitude 10° 22:26:04 10° 225° (SW) 2,466 5.9 -14.4°
Sets 22:28:22 0° 225° (SW) 3,394 6.6 -14.5°
